ID Time Temp Humidity Light PM2.5 PM10 Voltage Extra Firmware Position Fcnt TTN version Gateways Distance RSSI LSNR Radiosettings
2026-05-08 21:21:44 14.125°C 113.312% 3.39V v3 52.1762 / 5.39001 2035 ttn.v3 0.363km -111 -2.8 867.5MHz, SF9BW125, 4/5CR
2026-05-08 21:05:47 14.3125°C 114.312% 3.39V v3 52.1762 / 5.39001 2034 ttn.v3 0.363km -116 -1 868.1MHz, SF9BW125, 4/5CR
0.84km -117 -2 868.1MHz, SF9BW125, 4/5CR
2026-05-08 20:49:49 14.5°C 113.875% 3.39V v3 52.1762 / 5.39001 2033 ttn.v3 0.363km -113 -2 867.3MHz, SF9BW125, 4/5CR
0.84km -117 -5 867.3MHz, SF9BW125, 4/5CR
2026-05-08 20:33:52 14.75°C 114.562% 3.39V v3 52.1762 / 5.39001 2032 ttn.v3 0.363km -109 -1.5 868.5MHz, SF9BW125, 4/5CR
0.84km -108 -9.5 868.5MHz, SF9BW125, 4/5CR
2026-05-08 20:17:54 14.9375°C 112.625% 3.39V v3 52.1762 / 5.39001 2031 ttn.v3 0.363km -117 -2.8 867.1MHz, SF9BW125, 4/5CR
0.84km -119 -4.5 867.1MHz, SF9BW125, 4/5CR
- -125 -11 867.1MHz, SF9BW125, 4/5CR
2026-05-08 19:45:59 15.125°C 109.562% 3.39V v3 52.1762 / 5.39001 2029 ttn.v3 0.363km -116 -1.2 867.9MHz, SF9BW125, 4/5CR
0.84km -118 -5.5 867.9MHz, SF9BW125, 4/5CR
2026-05-08 19:30:02 15.3125°C 107.875% 3.39V v3 52.1762 / 5.39001 2028 ttn.v3 0.84km -119 -1.75 868.1MHz, SF9BW125, 4/5CR
0.363km -116 -2.2 868.1MHz, SF9BW125, 4/5CR
2026-05-08 19:14:04 15.375°C 106.062% 3.39V v3 52.1762 / 5.39001 2027 ttn.v3 0.363km -112 -3 867.7MHz, SF9BW125, 4/5CR
2026-05-08 18:58:06 15.5°C 104.75% 3.39V v3 52.1762 / 5.39001 2026 ttn.v3 0.363km -106 -6.2 868.5MHz, SF9BW125, 4/5CR
2026-05-08 18:42:08 15.625°C 104.875% 3.39V v3 52.1762 / 5.39001 2025 ttn.v3 0.363km -110 -3.8 867.5MHz, SF9BW125, 4/5CR
2026-05-08 18:26:11 15.6875°C 104.688% 3.39V v3 52.1762 / 5.39001 2024 ttn.v3 0.363km -113 -4.8 868.3MHz, SF9BW125, 4/5CR
2026-05-08 18:10:13 15.6875°C 104.688% 3.39V v3 52.1762 / 5.39001 2023 ttn.v3 0.363km -115 -2.8 867.3MHz, SF9BW125, 4/5CR
0.84km -113 -8.5 867.3MHz, SF9BW125, 4/5CR
2026-05-08 17:54:15 15.625°C 103.938% 3.39V v3 52.1762 / 5.39001 2022 ttn.v3 0.363km -116 0 868.1MHz, SF9BW125, 4/5CR
0.84km -117 -5 868.1MHz, SF9BW125, 4/5CR
2026-05-08 17:38:17 15.6875°C 103.5% 3.39V v3 52.1762 / 5.39001 2021 ttn.v3 0.84km -120 -2.5 867.1MHz, SF9BW125, 4/5CR
0.363km -114 -3.5 867.1MHz, SF9BW125, 4/5CR
- -126 -11.5 867.1MHz, SF9BW125, 4/5CR
2026-05-08 17:22:20 15.75°C 104.125% 3.39V v3 52.1762 / 5.39001 2020 ttn.v3 0.363km -115 0 868.5MHz, SF9BW125, 4/5CR
0.84km -113 -10.75 868.5MHz, SF9BW125, 4/5CR
2026-05-08 17:06:22 15.625°C 104.938% 3.39V v3 52.1762 / 5.39001 2019 ttn.v3 0.363km -116 -3 867.9MHz, SF9BW125, 4/5CR
0.84km -119 -5 867.9MHz, SF9BW125, 4/5CR
2026-05-08 16:34:26 15.3125°C 104.5% 3.39V v3 52.1762 / 5.39001 2017 ttn.v3 0.363km -115 -2.2 867.7MHz, SF9BW125, 4/5CR
0.84km -113 -5.25 867.7MHz, SF9BW125, 4/5CR
2026-05-08 16:19:46 15.3125°C 105.375% 3.39V v3 52.1762 / 5.39001 2016 ttn.v3 0.363km -117 0 868.1MHz, SF12BW125, 4/5CR
0.84km -113 -3 868.1MHz, SF12BW125, 4/5CR
2026-05-08 16:02:35 15.3125°C 104.75% 3.39V v3 No position 2015 ttn.v3 - -113 -2.8 867.5MHz, SF9BW125, 4/5CR
2026-05-08 15:30:40 15.375°C 102.812% 3.39V v3 No position 2013 ttn.v3 - -115 -1.8 867.3MHz, SF9BW125, 4/5CR
- -119 -6.5 867.3MHz, SF9BW125, 4/5CR
2026-05-08 15:14:42 15.5°C 102.875% 3.39V v3 No position 2012 ttn.v3 - -110 -4.2 868.3MHz, SF9BW125, 4/5CR
2026-05-08 14:58:44 15.625°C 103.375% 3.39V v3 No position 2011 ttn.v3 - -116 -2.5 867.1MHz, SF9BW125, 4/5CR
- -118 -3.5 867.1MHz, SF9BW125, 4/5CR
2026-05-08 14:42:47 15.75°C 101.562% 3.39V v3 No position 2010 ttn.v3 - -116 -1.8 868.1MHz, SF9BW125, 4/5CR
- -114 -3.5 868.1MHz, SF9BW125, 4/5CR
2026-05-08 14:26:49 15.75°C 102.188% 3.39V v3 No position 2009 ttn.v3 - -116 -1.5 867.9MHz, SF9BW125, 4/5CR
- -120 -7 867.9MHz, SF9BW125, 4/5CR
2026-05-08 14:10:51 15.9375°C 103.812% 3.39V v3 No position 2008 ttn.v3 - -113 -6.5 868.5MHz, SF9BW125, 4/5CR
- -108 -13.75 868.5MHz, SF9BW125, 4/5CR
2026-05-08 13:54:53 15.625°C 104.438% 3.39V v3 No position 2007 ttn.v3 - -116 -1.2 867.7MHz, SF9BW125, 4/5CR
- -113 -12 867.7MHz, SF9BW125, 4/5CR
2026-05-08 13:22:58 15.1875°C 101.25% 3.39V v3 No position 2005 ttn.v3 - -106 -6.5 867.5MHz, SF9BW125, 4/5CR
2026-05-08 13:07:00 14.5°C 102.812% 3.39V v3 No position 2004 ttn.v3 - -117 -1.2 868.1MHz, SF9BW125, 4/5CR
2026-05-08 12:51:03 14.1875°C 110.562% 3.41V v3 No position 2003 ttn.v3 - -115 0.5 867.3MHz, SF9BW125, 4/5CR
- -115 -7.5 867.3MHz, SF9BW125, 4/5CR
2026-05-08 12:35:06 13.9375°C 110.062% 3.39V v3 No position 2002 ttn.v3 - -111 0.8 868.5MHz, SF9BW125, 4/5CR
2026-05-08 12:19:09 13.75°C 111.188% 3.39V v3 No position 2001 ttn.v3 - -116 -2.5 867.1MHz, SF9BW125, 4/5CR
- -117 -2.75 867.1MHz, SF9BW125, 4/5CR
- -126 -13 867.1MHz, SF9BW125, 4/5CR
2026-05-08 12:03:11 13.5625°C 111.812% 3.39V v3 No position 2000 ttn.v3 - -110 -0.8 868.3MHz, SF9BW125, 4/5CR
2026-05-08 11:47:14 13.4375°C 113.625% 3.39V v3 No position 1999 ttn.v3 - -116 0.8 867.9MHz, SF9BW125, 4/5CR
- -120 -8.25 867.9MHz, SF9BW125, 4/5CR
2026-05-08 11:31:17 13.4375°C 114.312% 3.39V v3 No position 1998 ttn.v3 - -117 -1.5 868.1MHz, SF9BW125, 4/5CR
- -115 -3.75 868.1MHz, SF9BW125, 4/5CR
2026-05-08 11:15:20 13.4375°C 115.312% 3.39V v3 No position 1997 ttn.v3 - -117 -5.5 867.7MHz, SF9BW125, 4/5CR
- -116 -5.8 867.7MHz, SF9BW125, 4/5CR
2026-05-08 10:59:23 13.3125°C 111.812% 3.39V v3 No position 1996 ttn.v3 - -111 -11 868.5MHz, SF9BW125, 4/5CR
2026-05-08 10:43:26 13.1875°C -4.375% 3.39V v3 No position 1995 ttn.v3 - -112 -6.2 867.5MHz, SF9BW125, 4/5CR
2026-05-08 10:11:32 12.6875°C -0.5% 3.39V v3 No position 1993 ttn.v3 - -113 -0.8 867.3MHz, SF9BW125, 4/5CR
- -119 -6 867.3MHz, SF9BW125, 4/5CR
2026-05-08 09:55:35 12.4375°C 0.0625% 3.39V v3 No position 1992 ttn.v3 - -116 -2.5 868.1MHz, SF9BW125, 4/5CR
- -117 -7.5 868.1MHz, SF9BW125, 4/5CR
2026-05-08 09:39:39 12.125°C -0.1875% 3.39V v3 No position 1991 ttn.v3 - -114 0.8 867.1MHz, SF9BW125, 4/5CR
- -120 -1.25 867.1MHz, SF9BW125, 4/5CR
2026-05-08 09:07:45 11.5625°C -3.0625% 3.39V v3 No position 1989 ttn.v3 - -116 0.8 867.9MHz, SF9BW125, 4/5CR
2026-05-08 08:51:49 11.3125°C -4.5% 3.39V v3 No position 1988 ttn.v3 - -105 -4.2 868.3MHz, SF9BW125, 4/5CR
2026-05-08 08:35:52 11.125°C -5.75% 3.41V v3 No position 1987 ttn.v3 - -111 1.2 867.7MHz, SF9BW125, 4/5CR
- -119 -6.25 867.7MHz, SF9BW125, 4/5CR
2026-05-08 08:19:56 11°C 118.562% 3.39V v3 No position 1986 ttn.v3 - -115 0.8 868.1MHz, SF9BW125, 4/5CR
- -115 -4 868.1MHz, SF9BW125, 4/5CR
2026-05-08 08:03:59 10.9375°C 117.688% 3.41V v3 No position 1985 ttn.v3 - -113 -5.5 867.5MHz, SF9BW125, 4/5CR
2026-05-08 07:32:07 10.75°C 116.625% 3.39V v3 No position 1983 ttn.v3 - -113 0.5 867.3MHz, SF9BW125, 4/5CR
2026-05-08 07:16:10 10.6875°C 115.812% 3.39V v3 No position 1982 ttn.v3 - -111 -4.5 868.3MHz, SF9BW125, 4/5CR
2026-05-08 07:00:14 10.6875°C 115.25% 3.39V v3 No position 1981 ttn.v3 - -115 0.8 867.1MHz, SF9BW125, 4/5CR
- -119 -3.25 867.1MHz, SF9BW125, 4/5CR
2026-05-08 06:44:17 10.6875°C 114.625% 3.41V v3 No position 1980 ttn.v3 - -119 -2.5 868.1MHz, SF9BW125, 4/5CR
- -115 -4 868.1MHz, SF9BW125, 4/5CR
2026-05-08 06:28:21 10.75°C 113.625% 3.41V v3 No position 1979 ttn.v3 - -114 0.5 867.9MHz, SF9BW125, 4/5CR
- -119 -3.75 867.9MHz, SF9BW125, 4/5CR
2026-05-08 05:56:28 10.875°C 112.312% 3.41V v3 No position 1977 ttn.v3 - -113 -0.8 867.7MHz, SF9BW125, 4/5CR
- -119 -11 867.7MHz, SF9BW125, 4/5CR
2026-05-08 05:24:35 11.0625°C 112.188% 3.39V v3 No position 1975 ttn.v3 - -113 -1 867.5MHz, SF9BW125, 4/5CR
2026-05-08 05:08:39 11.125°C 112.062% 3.41V v3 No position 1974 ttn.v3 - -115 1 868.1MHz, SF9BW125, 4/5CR
- -117 -0.25 868.1MHz, SF9BW125, 4/5CR
2026-05-08 04:52:42 11.1875°C 111.875% 3.39V v3 No position 1973 ttn.v3 - -113 1 867.3MHz, SF9BW125, 4/5CR
- -119 -4.25 867.3MHz, SF9BW125, 4/5CR
2026-05-08 04:36:46 11.25°C 111.188% 3.39V v3 No position 1972 ttn.v3 - -115 0 868.5MHz, SF9BW125, 4/5CR
- -114 -9.25 868.5MHz, SF9BW125, 4/5CR
2026-05-08 04:20:49 11.3125°C 111.312% 3.41V v3 No position 1971 ttn.v3 - -114 -0.5 867.1MHz, SF9BW125, 4/5CR
- -117 -0.75 867.1MHz, SF9BW125, 4/5CR
- -127 -12.75 867.1MHz, SF9BW125, 4/5CR
2026-05-08 04:04:53 11.375°C 110.688% 3.39V v3 No position 1970 ttn.v3 - -113 1 868.3MHz, SF9BW125, 4/5CR
2026-05-08 03:48:56 11.4375°C 110.5% 3.39V v3 No position 1969 ttn.v3 - -115 2.8 867.9MHz, SF9BW125, 4/5CR
- -117 -3 867.9MHz, SF9BW125, 4/5CR
2026-05-08 03:33:00 11.5°C 109.75% 3.39V v3 No position 1968 ttn.v3 - -116 1.2 868.1MHz, SF9BW125, 4/5CR
- -119 -0.75 868.1MHz, SF9BW125, 4/5CR
2026-05-08 03:17:03 11.5625°C 109.375% 3.41V v3 No position 1967 ttn.v3 - -114 0 867.7MHz, SF9BW125, 4/5CR
- -119 -1.5 867.7MHz, SF9BW125, 4/5CR
2026-05-08 03:01:07 11.6875°C 109.25% 3.41V v3 No position 1966 ttn.v3 - -111 -4.5 868.5MHz, SF9BW125, 4/5CR
- -117 -8.75 868.5MHz, SF9BW125, 4/5CR
2026-05-08 02:45:10 11.75°C 109.625% 3.39V v3 No position 1965 ttn.v3 - -111 -4 867.5MHz, SF9BW125, 4/5CR
2026-05-08 02:29:13 11.8125°C 109.312% 3.39V v3 No position 1964 ttn.v3 - -109 -0.8 868.3MHz, SF9BW125, 4/5CR
2026-05-08 02:13:17 11.875°C 109.625% 3.39V v3 No position 1963 ttn.v3 - -111 0 867.3MHz, SF9BW125, 4/5CR
2026-05-08 01:57:20 11.9375°C 109.625% 3.39V v3 No position 1962 ttn.v3 - -116 1.8 868.1MHz, SF9BW125, 4/5CR
- -117 -2.25 868.1MHz, SF9BW125, 4/5CR
2026-05-08 01:41:23 12°C 109.75% 3.39V v3 No position 1961 ttn.v3 - -118 -0.75 867.1MHz, SF9BW125, 4/5CR
- -116 -0.8 867.1MHz, SF9BW125, 4/5CR
2026-05-08 01:25:27 12.0625°C 110.75% 3.39V v3 No position 1960 ttn.v3 - -111 1.2 868.5MHz, SF9BW125, 4/5CR
- -114 -9 868.5MHz, SF9BW125, 4/5CR
2026-05-08 01:09:30 12.125°C 111.25% 3.39V v3 No position 1959 ttn.v3 - -116 2.5 867.9MHz, SF9BW125, 4/5CR
- -120 -3.5 867.9MHz, SF9BW125, 4/5CR
2026-05-08 00:37:36 12.1875°C 110.375% 3.39V v3 No position 1957 ttn.v3 - -115 1.5 867.7MHz, SF9BW125, 4/5CR
- -118 -4 867.7MHz, SF9BW125, 4/5CR
2026-05-08 00:21:40 12.25°C 110.188% 3.39V v3 No position 1956 ttn.v3 - -115 1.8 868.1MHz, SF9BW125, 4/5CR
- -116 -1.75 868.1MHz, SF9BW125, 4/5CR
2026-05-08 00:05:43 12.3125°C 109.688% 3.39V v3 No position 1955 ttn.v3 - -113 1.5 867.5MHz, SF9BW125, 4/5CR
2026-05-07 23:49:46 12.375°C 109.062% 3.39V v3 No position 1954 ttn.v3 - -113 -2.8 868.5MHz, SF9BW125, 4/5CR
- -117 -8.25 868.5MHz, SF9BW125, 4/5CR
2026-05-07 23:33:49 12.375°C 108.312% 3.39V v3 No position 1953 ttn.v3 - -113 1 867.3MHz, SF9BW125, 4/5CR
- -120 -8 867.3MHz, SF9BW125, 4/5CR
2026-05-07 23:17:53 12.5°C 107.312% 3.39V v3 No position 1952 ttn.v3 - -109 -2.2 868.3MHz, SF9BW125, 4/5CR
2026-05-07 23:01:56 12.5°C 106.5% 3.39V v3 No position 1951 ttn.v3 - -115 0.5 867.1MHz, SF9BW125, 4/5CR
- -119 -3.25 867.1MHz, SF9BW125, 4/5CR
- -124 -9.25 867.1MHz, SF9BW125, 4/5CR
2026-05-07 22:45:59 12.5625°C 105.438% 3.39V v3 No position 1950 ttn.v3 - -113 1 868.1MHz, SF9BW125, 4/5CR
- -119 -2.25 868.1MHz, SF9BW125, 4/5CR
2026-05-07 22:30:02 12.625°C 104.312% 3.39V v3 No position 1949 ttn.v3 - -116 -0.5 867.9MHz, SF9BW125, 4/5CR
- -120 -6.75 867.9MHz, SF9BW125, 4/5CR
2026-05-07 22:14:05 12.75°C 103.75% 3.39V v3 No position 1948 ttn.v3 - -115 0.2 868.5MHz, SF9BW125, 4/5CR
- -112 -10.75 868.5MHz, SF9BW125, 4/5CR
2026-05-07 21:58:08 13°C 105% 3.39V v3 No position 1947 ttn.v3 - -113 1.5 867.7MHz, SF9BW125, 4/5CR
- -118 -5.25 867.7MHz, SF9BW125, 4/5CR
2026-05-07 21:42:11 13.25°C 106.5% 3.39V v3 No position 1946 ttn.v3 - -111 -1 868.3MHz, SF9BW125, 4/5CR
2026-05-07 21:26:14 13.4375°C 107.875% 3.39V v3 No position 1945 ttn.v3 - -107 -0.8 867.5MHz, SF9BW125, 4/5CR
2026-05-07 21:10:17 13.5625°C 108.875% 3.39V v3 No position 1944 ttn.v3 - -114 -3 868.1MHz, SF9BW125, 4/5CR
2026-05-07 20:54:20 13.6875°C 108.625% 3.39V v3 No position 1943 ttn.v3 - -115 -1 867.3MHz, SF9BW125, 4/5CR
- -117 -4.25 867.3MHz, SF9BW125, 4/5CR
2026-05-07 20:22:26 13.9375°C 106.75% 3.39V v3 No position 1941 ttn.v3 - -116 0.2 867.1MHz, SF9BW125, 4/5CR
- -120 -2 867.1MHz, SF9BW125, 4/5CR
- -125 -11 867.1MHz, SF9BW125, 4/5CR
2026-05-07 20:06:28 13.9375°C 105.312% 3.39V v3 No position 1940 ttn.v3 - -113 -3 868.3MHz, SF9BW125, 4/5CR
- -111 -10.5 868.3MHz, SF9BW125, 4/5CR
2026-05-07 19:50:31 14.0625°C 103.938% 3.39V v3 No position 1939 ttn.v3 - -116 -3 867.9MHz, SF9BW125, 4/5CR
- -118 -5.5 867.9MHz, SF9BW125, 4/5CR
2026-05-07 19:34:34 14.0625°C 99.5625% 3.39V v3 No position 1938 ttn.v3 - -119 -5.5 868.1MHz, SF9BW125, 4/5CR
2026-05-07 19:18:37 14.125°C 103.625% 3.39V v3 No position 1937 ttn.v3 - -113 0.2 867.7MHz, SF9BW125, 4/5CR
- -119 -3.5 867.7MHz, SF9BW125, 4/5CR
2026-05-07 18:46:42 14.25°C 103.125% 3.39V v3 No position 1935 ttn.v3 - -113 -6 867.5MHz, SF9BW125, 4/5CR
2026-05-07 18:14:47 14.25°C 102.438% 3.39V v3 No position 1933 ttn.v3 - -116 -5.2 867.3MHz, SF9BW125, 4/5CR
- -114 -10.5 867.3MHz, SF9BW125, 4/5CR
2026-05-07 17:58:50 14.3125°C 101.188% 3.39V v3 No position 1932 ttn.v3 - -116 -3.2 868.1MHz, SF9BW125, 4/5CR
2026-05-07 17:42:53 14.375°C 100.75% 3.39V v3 No position 1931 ttn.v3 - -117 -1 867.1MHz, SF9BW125, 4/5CR
- -120 -2 867.1MHz, SF9BW125, 4/5CR
2026-05-07 17:10:58 14.5°C 99.375% 3.39V v3 No position 1929 ttn.v3 - -116 -4.5 867.9MHz, SF9BW125, 4/5CR
- -120 -7 867.9MHz, SF9BW125, 4/5CR
2026-05-07 16:55:01 14.6875°C 98.0625% 3.39V v3 No position 1928 ttn.v3 - -105 -4.8 868.3MHz, SF9BW125, 4/5CR
2026-05-07 16:39:03 14.875°C 96.9375% 3.39V v3 No position 1927 ttn.v3 - -113 -1.8 867.7MHz, SF9BW125, 4/5CR
- -113 -11.25 867.7MHz, SF9BW125, 4/5CR
2026-05-07 16:23:06 15.25°C 95.5625% 3.39V v3 No position 1926 ttn.v3 - -106 -1.5 868.1MHz, SF9BW125, 4/5CR
- -115 -3.25 868.1MHz, SF9BW125, 4/5CR
2026-05-07 15:51:10 15.9375°C 93.375% 3.39V v3 No position 1924 ttn.v3 - -115 -1.8 868.5MHz, SF9BW125, 4/5CR
- -108 -12.25 868.5MHz, SF9BW125, 4/5CR
2026-05-07 15:35:12 16.5°C 93.3125% 3.39V v3 No position 1923 ttn.v3 - -115 -0.2 867.3MHz, SF9BW125, 4/5CR
- -117 -9.25 867.3MHz, SF9BW125, 4/5CR
2026-05-07 15:03:16 16.6875°C 92.1875% 3.39V v3 No position 1921 ttn.v3 - -115 -2.5 867.1MHz, SF9BW125, 4/5CR
- -118 -6.75 867.1MHz, SF9BW125, 4/5CR
2026-05-07 14:49:27 16.375°C 92.625% 3.39V v3 No position 1920 ttn.v3 - -117 -1.5 868.1MHz, SF12BW125, 4/5CR
- -119 -2.5 868.1MHz, SF12BW125, 4/5CR
2026-05-07 14:31:27 15.8125°C 94.6875% 3.39V v3 No position 1919 ttn.v3 - -116 -0.2 867.9MHz, SF9BW125, 4/5CR
- -120 -6.75 867.9MHz, SF9BW125, 4/5CR
2026-05-07 14:15:30 14.875°C 98.625% 3.39V v3 No position 1918 ttn.v3 - -100 0.2 868.5MHz, SF9BW125, 4/5CR
2026-05-07 13:59:32 14.625°C 97.9375% 3.39V v3 No position 1917 ttn.v3 - -111 1.5 867.7MHz, SF9BW125, 4/5CR
- -119 -6.75 867.7MHz, SF9BW125, 4/5CR
2026-05-07 13:27:38 13.8125°C 97.625% 3.39V v3 No position 1915 ttn.v3 - -111 -1.5 867.5MHz, SF9BW125, 4/5CR
2026-05-07 13:11:41 13.5°C 97.75% 3.39V v3 No position 1914 ttn.v3 - -108 -7.5 868.1MHz, SF9BW125, 4/5CR
- -111 -8 868.1MHz, SF9BW125, 4/5CR
2026-05-07 12:55:43 13.375°C 96.6875% 3.39V v3 No position 1913 ttn.v3 - -115 0.8 867.3MHz, SF9BW125, 4/5CR
- -120 -7.25 867.3MHz, SF9BW125, 4/5CR
2026-05-07 12:39:46 12.9375°C 96% 3.39V v3 No position 1912 ttn.v3 - -115 1.8 868.5MHz, SF9BW125, 4/5CR
2026-05-07 12:23:49 12.4375°C 95.3125% 3.39V v3 No position 1911 ttn.v3 - -113 -0.2 867.1MHz, SF9BW125, 4/5CR
- -119 -4.5 867.1MHz, SF9BW125, 4/5CR
- -124 -10.25 867.1MHz, SF9BW125, 4/5CR
2026-05-07 12:07:53 12.0625°C 95.625% 3.39V v3 No position 1910 ttn.v3 - -111 -6.8 868.3MHz, SF9BW125, 4/5CR
2026-05-07 11:51:56 11.6875°C 96.5% 3.39V v3 No position 1909 ttn.v3 - -116 -0.5 867.9MHz, SF9BW125, 4/5CR
- -120 -10.75 867.9MHz, SF9BW125, 4/5CR
2026-05-07 11:36:00 11.4375°C 97.625% 3.39V v3 No position 1908 ttn.v3 - -116 0 868.1MHz, SF9BW125, 4/5CR
2026-05-07 11:20:03 11.1875°C 98.25% 3.39V v3 No position 1907 ttn.v3 - -113 -0.2 867.7MHz, SF9BW125, 4/5CR
- -117 -5.75 867.7MHz, SF9BW125, 4/5CR
2026-05-07 10:16:18 10.25°C 106.438% 3.39V v3 No position 1903 ttn.v3 - -115 0.5 867.3MHz, SF9BW125, 4/5CR
2026-05-07 10:00:21 10.0625°C 110.188% 3.39V v3 No position 1902 ttn.v3 - -116 1 868.1MHz, SF9BW125, 4/5CR
2026-05-07 09:44:25 9.875°C 112.875% 3.41V v3 No position 1901 ttn.v3 - -115 3.2 867.1MHz, SF9BW125, 4/5CR
- -119 -4 867.1MHz, SF9BW125, 4/5CR
2026-05-07 09:28:29 9.6875°C 115.5% 3.39V v3 No position 1900 ttn.v3 - -115 -0.5 868.5MHz, SF9BW125, 4/5CR
2026-05-07 09:12:33 9.5625°C 118.062% 3.39V v3 No position 1899 ttn.v3 - -114 3 867.9MHz, SF9BW125, 4/5CR
2026-05-07 08:56:37 9.4375°C 117.812% 3.39V v3 No position 1898 ttn.v3 - -107 -8.5 868.3MHz, SF9BW125, 4/5CR
2026-05-07 08:40:41 9.3125°C -5.875% 3.41V v3 No position 1897 ttn.v3 - -115 -0.2 867.7MHz, SF9BW125, 4/5CR
- -119 -8.25 867.7MHz, SF9BW125, 4/5CR
2026-05-07 08:24:54 9.1875°C -5.75% 3.39V v3 No position 1896 ttn.v3 - -113 1.8 868.1MHz, SF9BW125, 4/5CR
- -119 -8.5 868.1MHz, SF9BW125, 4/5CR
2026-05-07 07:37:06 8.8125°C 113.625% 3.41V v3 No position 1893 ttn.v3 - -111 2.2 867.3MHz, SF9BW125, 4/5CR
- -120 -6.25 867.3MHz, SF9BW125, 4/5CR
2026-05-07 07:05:14 8.9375°C 110.875% 3.41V v3 No position 1891 ttn.v3 - -115 1.2 867.1MHz, SF9BW125, 4/5CR
2026-05-07 06:49:18 9°C 110.375% 3.41V v3 No position 1890 ttn.v3 - -115 -1.8 868.1MHz, SF9BW125, 4/5CR
- -119 -2.75 868.1MHz, SF9BW125, 4/5CR
2026-05-07 06:33:22 9°C 109.625% 3.39V v3 No position 1889 ttn.v3 - -115 1.5 867.9MHz, SF9BW125, 4/5CR
- -120 -3.75 867.9MHz, SF9BW125, 4/5CR
2026-05-07 06:01:30 9°C 108.25% 3.39V v3 No position 1887 ttn.v3 - -113 2.2 867.7MHz, SF9BW125, 4/5CR
- -115 -4.5 867.7MHz, SF9BW125, 4/5CR
2026-05-07 05:45:34 9.0625°C 107.562% 3.41V v3 No position 1886 ttn.v3 - -109 -5 868.3MHz, SF9BW125, 4/5CR
2026-05-07 05:29:38 9.1875°C 107.375% 3.39V v3 No position 1885 ttn.v3 - -111 -0.8 867.5MHz, SF9BW125, 4/5CR
2026-05-07 05:13:42 9.25°C 104.75% 3.39V v3 No position 1884 ttn.v3 - -115 0 868.1MHz, SF9BW125, 4/5CR
2026-05-07 04:57:46 9.3125°C 104.375% 3.39V v3 No position 1883 ttn.v3 - -111 -0.2 867.3MHz, SF9BW125, 4/5CR
- -118 -8 867.3MHz, SF9BW125, 4/5CR
2026-05-07 04:41:50 9.375°C 103.688% 3.39V v3 No position 1882 ttn.v3 - -115 -0.2 868.5MHz, SF9BW125, 4/5CR
- -113 -9.75 868.5MHz, SF9BW125, 4/5CR
2026-05-07 04:25:54 9.5°C 104% 3.39V v3 No position 1881 ttn.v3 - -114 0.8 867.1MHz, SF9BW125, 4/5CR
- -117 -3.5 867.1MHz, SF9BW125, 4/5CR
- -125 -9 867.1MHz, SF9BW125, 4/5CR
2026-05-07 04:09:58 9.625°C 103.938% 3.41V v3 No position 1880 ttn.v3 - -108 -1.8 868.3MHz, SF9BW125, 4/5CR
2026-05-07 03:54:02 9.6875°C 103.25% 3.39V v3 No position 1879 ttn.v3 - -115 1.8 867.9MHz, SF9BW125, 4/5CR
- -120 -4.25 867.9MHz, SF9BW125, 4/5CR
2026-05-07 03:38:06 9.75°C 102.312% 3.41V v3 No position 1878 ttn.v3 - -116 2 868.1MHz, SF9BW125, 4/5CR
- -119 -0.5 868.1MHz, SF9BW125, 4/5CR
2026-05-07 03:22:10 9.875°C 101.688% 3.39V v3 No position 1877 ttn.v3 - -113 2.5 867.7MHz, SF9BW125, 4/5CR
- -119 -4.5 867.7MHz, SF9BW125, 4/5CR
2026-05-07 03:06:14 9.9375°C 101.188% 3.39V v3 No position 1876 ttn.v3 - -114 1 868.5MHz, SF9BW125, 4/5CR
2026-05-07 02:50:18 10.0625°C 100.5% 3.39V v3 No position 1875 ttn.v3 - -111 1 867.5MHz, SF9BW125, 4/5CR
2026-05-07 02:18:25 10.4375°C 100.062% 3.39V v3 No position 1873 ttn.v3 - -113 1.2 867.3MHz, SF9BW125, 4/5CR
- -115 -4.75 867.3MHz, SF9BW125, 4/5CR
2026-05-07 02:02:29 10.625°C 100.062% 3.39V v3 No position 1872 ttn.v3 - -114 1.2 868.1MHz, SF9BW125, 4/5CR
- -117 -4.25 868.1MHz, SF9BW125, 4/5CR
2026-05-07 01:46:33 10.75°C 100.438% 3.39V v3 No position 1871 ttn.v3 - -113 1 867.1MHz, SF9BW125, 4/5CR
- -111 -2.25 867.1MHz, SF9BW125, 4/5CR
- -126 -12.75 867.1MHz, SF9BW125, 4/5CR
2026-05-07 01:30:36 10.9375°C 100.562% 3.39V v3 No position 1870 ttn.v3 - -110 -3.2 868.5MHz, SF9BW125, 4/5CR
2026-05-07 01:14:40 11.125°C 100.625% 3.39V v3 No position 1869 ttn.v3 - -115 2 867.9MHz, SF9BW125, 4/5CR
- -120 -6.75 867.9MHz, SF9BW125, 4/5CR
2026-05-07 00:42:47 11.4375°C 101% 3.39V v3 No position 1867 ttn.v3 - -113 1.8 867.7MHz, SF9BW125, 4/5CR
- -120 -3 867.7MHz, SF9BW125, 4/5CR
2026-05-07 00:26:50 11.5°C 101.625% 3.39V v3 No position 1866 ttn.v3 - -116 1.2 868.1MHz, SF9BW125, 4/5CR
- -117 -0.75 868.1MHz, SF9BW125, 4/5CR
2026-05-07 00:10:54 11.5625°C 102.5% 3.39V v3 No position 1865 ttn.v3 - -113 -0.8 867.5MHz, SF9BW125, 4/5CR
2026-05-06 23:54:57 11.5625°C 102.312% 3.39V v3 No position 1864 ttn.v3 - -115 1.2 868.5MHz, SF9BW125, 4/5CR
- -112 -8.25 868.5MHz, SF9BW125, 4/5CR
2026-05-06 23:39:01 11.6875°C 101.688% 3.39V v3 No position 1863 ttn.v3 - -111 0.8 867.3MHz, SF9BW125, 4/5CR
- -118 -6 867.3MHz, SF9BW125, 4/5CR
2026-05-06 23:07:07 12°C 102.875% 3.39V v3 No position 1861 ttn.v3 - -114 0.5 867.1MHz, SF9BW125, 4/5CR
- -118 -5.5 867.1MHz, SF9BW125, 4/5CR
2026-05-06 22:51:11 12.125°C 103.125% 3.39V v3 No position 1860 ttn.v3 - -114 -1.25 868.1MHz, SF9BW125, 4/5CR
- -115 -3 868.1MHz, SF9BW125, 4/5CR
2026-05-06 22:35:14 12.25°C 104.75% 3.39V v3 No position 1859 ttn.v3 - -115 -0.2 867.9MHz, SF9BW125, 4/5CR
- -119 -12.25 867.9MHz, SF9BW125, 4/5CR
2026-05-06 22:19:17 12.3125°C 104.625% 3.39V v3 No position 1858 ttn.v3 - -113 -1.2 868.5MHz, SF9BW125, 4/5CR
- -114 -10.5 868.5MHz, SF9BW125, 4/5CR
2026-05-06 22:03:20 12.4375°C 105% 3.39V v3 No position 1857 ttn.v3 - -116 0.5 867.7MHz, SF9BW125, 4/5CR
- -120 -4.25 867.7MHz, SF9BW125, 4/5CR
2026-05-06 21:31:27 12.625°C 104.312% 3.39V v3 No position 1855 ttn.v3 - -115 -0.8 867.5MHz, SF9BW125, 4/5CR
2026-05-06 21:15:30 12.75°C 104.062% 3.39V v3 No position 1854 ttn.v3 - -115 -0.5 868.1MHz, SF9BW125, 4/5CR
- -119 -2.75 868.1MHz, SF9BW125, 4/5CR
2026-05-06 20:59:33 12.875°C 103.625% 3.39V v3 No position 1853 ttn.v3 - -111 0.5 867.3MHz, SF9BW125, 4/5CR
2026-05-06 20:27:39 13.0625°C 102.938% 3.39V v3 No position 1851 ttn.v3 - -116 -0.8 867.1MHz, SF9BW125, 4/5CR
- -112 -4 867.1MHz, SF9BW125, 4/5CR
2026-05-06 19:55:45 13.3125°C 101.812% 3.39V v3 No position 1849 ttn.v3 - -115 -1.2 867.9MHz, SF9BW125, 4/5CR
- -120 -11.75 867.9MHz, SF9BW125, 4/5CR
2026-05-06 19:39:48 13.4375°C 99.75% 3.39V v3 No position 1848 ttn.v3 - -118 -1.25 868.1MHz, SF9BW125, 4/5CR
- -117 -3 868.1MHz, SF9BW125, 4/5CR
2026-05-06 19:23:51 13.5625°C 98.8125% 3.39V v3 No position 1847 ttn.v3 - -115 -4 867.7MHz, SF9BW125, 4/5CR
- -115 -9.25 867.7MHz, SF9BW125, 4/5CR
2026-05-06 19:07:53 13.625°C 100.625% 3.39V v3 No position 1846 ttn.v3 - -117 -3.5 868.5MHz, SF9BW125, 4/5CR
2026-05-06 18:51:56 13.6875°C 99.5% 3.41V v3 No position 1845 ttn.v3 - -114 -12.2 867.5MHz, SF9BW125, 4/5CR
2026-05-06 18:20:02 13.75°C 100.75% 3.39V v3 No position 1843 ttn.v3 - -117 -7.5 867.3MHz, SF9BW125, 4/5CR
- -114 -8.25 867.3MHz, SF9BW125, 4/5CR
2026-05-06 18:04:05 13.75°C 100.375% 3.39V v3 No position 1842 ttn.v3 - -119 -2.5 868.1MHz, SF9BW125, 4/5CR
- -117 -4.8 868.1MHz, SF9BW125, 4/5CR
2026-05-06 17:48:08 13.75°C 99.8125% 3.39V v3 No position 1841 ttn.v3 - -116 -2.8 867.1MHz, SF9BW125, 4/5CR
- -119 -3.5 867.1MHz, SF9BW125, 4/5CR
2026-05-06 17:16:13 13.875°C 97.4375% 3.39V v3 No position 1839 ttn.v3 - -117 -2.5 867.9MHz, SF9BW125, 4/5CR
- -118 -5 867.9MHz, SF9BW125, 4/5CR
2026-05-06 16:44:19 13.9375°C 96.1875% 3.39V v3 No position 1837 ttn.v3 - -110 -4.8 867.7MHz, SF9BW125, 4/5CR
2026-05-06 16:28:21 13.9375°C 94.4375% 3.39V v3 No position 1836 ttn.v3 - -117 -1.5 868.1MHz, SF9BW125, 4/5CR
- -119 -5.2 868.1MHz, SF9BW125, 4/5CR
2026-05-06 16:12:24 13.875°C 93.8125% 3.39V v3 No position 1835 ttn.v3 - -109 -4.8 867.5MHz, SF9BW125, 4/5CR
2026-05-06 15:56:27 13.8125°C 94.25% 3.39V v3 No position 1834 ttn.v3 - -114 1.2 868.5MHz, SF9BW125, 4/5CR
2026-05-06 15:40:30 13.75°C 94.6875% 3.39V v3 No position 1833 ttn.v3 - -114 -4.5 867.3MHz, SF9BW125, 4/5CR
- -112 -8.75 867.3MHz, SF9BW125, 4/5CR
2026-05-06 15:08:36 13.4375°C 95.375% 3.39V v3 No position 1831 ttn.v3 - -117 -5 867.1MHz, SF9BW125, 4/5CR
- -120 -7.5 867.1MHz, SF9BW125, 4/5CR
2026-05-06 14:52:39 13.4375°C 95.3125% 3.39V v3 No position 1830 ttn.v3 - -116 -6 868.1MHz, SF9BW125, 4/5CR
- -119 -10.75 868.1MHz, SF9BW125, 4/5CR
2026-05-06 14:36:42 13.5625°C 93.1875% 3.39V v3 No position 1829 ttn.v3 - -115 -0.5 867.9MHz, SF9BW125, 4/5CR
2026-05-06 14:04:47 13.625°C 94.1875% 3.39V v3 No position 1827 ttn.v3 - -115 -1.5 867.7MHz, SF9BW125, 4/5CR
- -111 -11 867.7MHz, SF9BW125, 4/5CR
2026-05-06 13:48:50 13.75°C 95.25% 3.39V v3 No position 1826 ttn.v3 - -104 -3 868.3MHz, SF9BW125, 4/5CR
2026-05-06 13:32:53 13.6875°C 94.5% 3.39V v3 No position 1825 ttn.v3 - -110 -8 867.5MHz, SF9BW125, 4/5CR
2026-05-06 13:19:05 13.625°C 97.875% 3.39V v3 No position 1824 ttn.v3 - -115 -0.2 868.1MHz, SF12BW125, 4/5CR
- -117 -4.5 868.1MHz, SF12BW125, 4/5CR
2026-05-06 13:01:06 13.4375°C 95.125% 3.39V v3 No position 1823 ttn.v3 - -116 -2.5 867.3MHz, SF9BW125, 4/5CR
- -117 -9 867.3MHz, SF9BW125, 4/5CR
2026-05-06 12:29:12 13.375°C 102.875% 3.39V v3 No position 1821 ttn.v3 - -115 -0.8 867.1MHz, SF9BW125, 4/5CR
- -118 -4.5 867.1MHz, SF9BW125, 4/5CR
2026-05-06 12:13:15 13.25°C 102.438% 3.39V v3 No position 1820 ttn.v3 - -113 -5.8 868.3MHz, SF9BW125, 4/5CR
2026-05-06 11:57:18 13.1875°C 101.938% 3.39V v3 No position 1819 ttn.v3 - -115 2 867.9MHz, SF9BW125, 4/5CR
2026-05-06 11:41:21 13.125°C 99.375% 3.39V v3 No position 1818 ttn.v3 - -117 -1.5 868.1MHz, SF9BW125, 4/5CR
- -119 -3 868.1MHz, SF9BW125, 4/5CR
2026-05-06 11:25:24 13.0625°C 101.062% 3.39V v3 No position 1817 ttn.v3 - -113 0.8 867.7MHz, SF9BW125, 4/5CR
2026-05-06 11:09:27 12.8125°C 99.625% 3.39V v3 No position 1816 ttn.v3 - -111 -6.5 868.5MHz, SF9BW125, 4/5CR
2026-05-06 10:53:30 12.5625°C 104.312% 3.39V v3 No position 1815 ttn.v3 - -113 1 867.5MHz, SF9BW125, 4/5CR
2026-05-06 10:37:33 12.375°C 103.375% 3.39V v3 No position 1814 ttn.v3 - -116 -5.8 868.3MHz, SF9BW125, 4/5CR
- -111 -10 868.3MHz, SF9BW125, 4/5CR
2026-05-06 10:21:37 12.25°C 110% 3.39V v3 No position 1813 ttn.v3 - -115 -2.5 867.3MHz, SF9BW125, 4/5CR
- -119 -6.5 867.3MHz, SF9BW125, 4/5CR
2026-05-06 10:05:40 12°C 109.188% 3.39V v3 No position 1812 ttn.v3 - -117 -5.5 868.1MHz, SF9BW125, 4/5CR
- -121 -5.8 868.1MHz, SF9BW125, 4/5CR
2026-05-06 09:49:43 11.75°C 109.25% 3.39V v3 No position 1811 ttn.v3 - -119 -2.5 867.1MHz, SF9BW125, 4/5CR
- -117 -8.5 867.1MHz, SF9BW125, 4/5CR
2026-05-06 09:17:50 11.4375°C 0.875% 3.39V v3 No position 1809 ttn.v3 - -116 -7.5 867.9MHz, SF9BW125, 4/5CR
2026-05-06 08:45:57 11.3125°C 0.75% 3.39V v3 No position 1807 ttn.v3 - -115 1.5 867.7MHz, SF9BW125, 4/5CR
- -117 -6.25 867.7MHz, SF9BW125, 4/5CR
2026-05-06 08:30:01 11.1875°C 1.125% 3.39V v3 No position 1806 ttn.v3 - -116 -0.8 868.1MHz, SF9BW125, 4/5CR
- -117 -4.75 868.1MHz, SF9BW125, 4/5CR
2026-05-06 08:14:04 11.125°C 1.4375% 3.39V v3 No position 1805 ttn.v3 - -106 -5.2 867.5MHz, SF9BW125, 4/5CR
2026-05-06 07:42:11 11.0625°C 1.5625% 3.41V v3 No position 1803 ttn.v3 - -117 -3.5 867.3MHz, SF9BW125, 4/5CR
- -113 -4.2 867.3MHz, SF9BW125, 4/5CR
2026-05-06 07:26:15 11.0625°C 1.75% 3.39V v3 No position 1802 ttn.v3 - -110 -6.8 868.3MHz, SF9BW125, 4/5CR
2026-05-06 07:10:18 11.0625°C 0.5% 3.39V v3 No position 1801 ttn.v3 - -116 -0.2 867.1MHz, SF9BW125, 4/5CR
- -119 -1 867.1MHz, SF9BW125, 4/5CR
- -125 -12 867.1MHz, SF9BW125, 4/5CR
2026-05-06 06:54:22 11.0625°C 0% 3.39V v3 No position 1800 ttn.v3 - -116 -1.5 868.1MHz, SF9BW125, 4/5CR
2026-05-06 06:38:25 11.0625°C -1.1875% 3.39V v3 No position 1799 ttn.v3 - -116 -1.2 867.9MHz, SF9BW125, 4/5CR
- -119 -5 867.9MHz, SF9BW125, 4/5CR
2026-05-06 06:22:29 11.0625°C 0.0625% 3.39V v3 No position 1798 ttn.v3 - -100 -2.2 868.5MHz, SF9BW125, 4/5CR
2026-05-06 06:06:33 11.0625°C 0.625% 3.39V v3 No position 1797 ttn.v3 - -115 0 867.7MHz, SF9BW125, 4/5CR
- -119 -3.25 867.7MHz, SF9BW125, 4/5CR

Message count: 200
Node count: 1

Messages per node

Number of messages in list aboveNodes
200

Statistics per gateway

GatewayNumber of messagesNumber of nodesNodes
1971 (0.363km)
1321 (0.84km)
101

Filter by dataset